{"data":{"norad_id":45370,"epoch":"2026-05-24T18:34:19.890048Z","epoch_age_seconds":104780,"freshness":"FRESH","line1":"1 45370U 20019L   26144.77384132  .00029277  00000+0  89779-3 0  9992","line2":"2 45370  53.1561 171.2902 0004912  24.2836 335.8397 15.33549258341411","mean_motion":15.33549258,"eccentricity":0.0004912,"inclination_deg":53.1561,"raan_deg":171.2902,"arg_perigee_deg":24.2836,"mean_anomaly_deg":335.8397,"bstar":0.00089779,"rev_number":34141,"period_min":93.899820464717,"perigee_km":461.87153025513,"apogee_km":468.59445693684,"semimajor_km":6843.369993596,"source":"CELESTRAK","updated_at":"2026-05-25T13:38:16.387660Z"}}